カタログに戻る

STARLINK-3548

運用中通信VLEO
NORAD 51864·PAYLOAD·🇺🇸 United States

打ち上げ Mar 3, 2022 から Cape Canaveral Space Force Station

Loading…

次のパス (今後24時間)

TLE

最新Source: CelesTrak SupGP

元期: Sep 14, 2026, 22:11 UTC

1 51864C 22022N   26257.92479167  .00020973  00000+0  61951-3 0  2571
2 51864  53.1594 229.4361 0001339  95.1524 264.8371 15.34386731    15

AllMySatでSTARLINK-3548をリアルタイム追跡

Download on the App Store